When you browse on this site, cookies collect data to enhance your experience and personalize the content and advertising you see.
Visit our Privacy Policy to learn more. By continuing to use the site, you agree to this use of cookies and data.
  • In Romania
  • List of Countries
  • For 7 days
  • Water Temperature
  • Satellite Maps
  • Weather Map
  • Weather Widgets
  • user-avatar
    Login

    Hourly Weather Marcinowiczki

    Today, 27 June, Thursday

    Time Temperature Precipitation Wind Pressure Humidity
    00:00 +26°C° 0.1 mm 4 mps 747 mmHg 78%
    01:00 +23°C° 0.1 mm 4 mps 748 mmHg 86%
    02:00 +23°C° 0 mm 4 mps 748 mmHg 88%
    03:00 +22°C° 0 mm 4 mps 748 mmHg 89%
    04:00 +21°C° 0 mm 4 mps 748 mmHg 91%
    05:00 +21°C° 0 mm 4 mps 748 mmHg 89%
    06:00 +20°C° 0 mm 5 mps 748 mmHg 87%
    07:00 +20°C° 0 mm 5 mps 749 mmHg 85%
    08:00 +21°C° 0 mm 6 mps 749 mmHg 78%
    09:00 +21°C° 0 mm 6 mps 749 mmHg 71%
    10:00 +22°C° 0 mm 6 mps 749 mmHg 65%
    11:00 +23°C° 0 mm 7 mps 749 mmHg 58%
    12:00 +23°C° 0 mm 7 mps 749 mmHg 52%
    13:00 +24°C° 0 mm 7 mps 749 mmHg 45%
    14:00 +24°C° 0 mm 7 mps 748 mmHg 46%
    15:00 +24°C° 0 mm 6 mps 748 mmHg 46%
    16:00 +24°C° 0 mm 6 mps 748 mmHg 46%
    17:00 +23°C° 0 mm 5 mps 748 mmHg 53%
    18:00 +22°C° 0 mm 4 mps 748 mmHg 59%
    19:00 +21°C° 0 mm 3 mps 748 mmHg 66%
    20:00 +19°C° 0 mm 3 mps 748 mmHg 71%
    21:00 +18°C° 0 mm 3 mps 748 mmHg 75%
    22:00 +16°C° 0 mm 3 mps 749 mmHg 80%
    23:00 +14°C° 0 mm 3 mps 749 mmHg 83%

    Tomorrow, 28 June, Friday

    Time Temperature Precipitation Wind Pressure Humidity
    00:00 +13°C° 0 mm 3 mps 749 mmHg 87%
    01:00 +13°C° 0 mm 2 mps 750 mmHg 91%
    02:00 +14°C° 0 mm 2 mps 750 mmHg 89%
    03:00 +14°C° 0 mm 2 mps 750 mmHg 88%
    04:00 +14°C° 0 mm 2 mps 750 mmHg 87%
    05:00 +14°C° 0 mm 3 mps 750 mmHg 83%
    06:00 +14°C° 0 mm 3 mps 750 mmHg 80%
    07:00 +16°C° 0 mm 3 mps 750 mmHg 76%
    08:00 +17°C° 0 mm 3 mps 750 mmHg 73%
    09:00 +18°C° 0 mm 3 mps 750 mmHg 70%
    10:00 +19°C° 0 mm 3 mps 750 mmHg 67%
    11:00 +20°C° 0 mm 3 mps 750 mmHg 65%
    12:00 +21°C° 0 mm 4 mps 749 mmHg 63%
    13:00 +22°C° 0 mm 4 mps 749 mmHg 61%
    14:00 +22°C° 0.1 mm 4 mps 749 mmHg 62%
    15:00 +23°C° 0.1 mm 4 mps 749 mmHg 62%
    16:00 +23°C° 0.1 mm 4 mps 749 mmHg 62%
    17:00 +22°C° 0.1 mm 4 mps 749 mmHg 66%
    18:00 +21°C° 0.1 mm 3 mps 749 mmHg 70%
    19:00 +21°C° 0.1 mm 2 mps 749 mmHg 74%
    20:00 +19°C° 0 mm 2 mps 749 mmHg 76%
    21:00 +18°C° 0 mm 2 mps 749 mmHg 78%
    22:00 +16°C° 0 mm 2 mps 749 mmHg 80%
    23:00 +15°C° 0 mm 1 mps 750 mmHg 82%

    Day after tomorrow, 29 June, Saturday

    Time Temperature Precipitation Wind Pressure Humidity
    00:00 +15°C° 0 mm 1 mps 750 mmHg 84%
    01:00 +14°C° 0 mm 1 mps 750 mmHg 87%
    02:00 +14°C° 0 mm 1 mps 750 mmHg 87%
    03:00 +13°C° 0 mm 1 mps 750 mmHg 88%
    04:00 +13°C° 0 mm 1 mps 750 mmHg 88%
    05:00 +15°C° 0 mm 1 mps 750 mmHg 81%
    06:00 +17°C° 0 mm 2 mps 750 mmHg 74%
    07:00 +19°C° 0 mm 2 mps 749 mmHg 68%
    08:00 +21°C° 0 mm 2 mps 749 mmHg 61%
    09:00 +23°C° 0 mm 1 mps 750 mmHg 54%
    10:00 +25°C° 0 mm 1 mps 750 mmHg 48%
    11:00 +26°C° 0 mm 1 mps 749 mmHg 46%
    12:00 +26°C° 0 mm 1 mps 749 mmHg 44%
    13:00 +27°C° 0 mm 2 mps 749 mmHg 42%
    14:00 +27°C° 0 mm 2 mps 748 mmHg 44%
    15:00 +27°C° 0 mm 2 mps 748 mmHg 45%
    16:00 +27°C° 0 mm 2 mps 748 mmHg 47%
    17:00 +26°C° 0 mm 2 mps 747 mmHg 53%
    18:00 +25°C° 0 mm 1 mps 747 mmHg 59%
    19:00 +24°C° 0 mm 1 mps 747 mmHg 65%
    20:00 +23°C° 0 mm 2 mps 747 mmHg 68%
    21:00 +21°C° 0 mm 2 mps 747 mmHg 72%
    22:00 +19°C° 0 mm 2 mps 747 mmHg 75%
    23:00 +19°C° 0 mm 2 mps 747 mmHg 76%

    30 June, Sunday

    Time Temperature Precipitation Wind Pressure Humidity
    00:00 +18°C° 0 mm 2 mps 747 mmHg 76%
    01:00 +18°C° 0 mm 2 mps 747 mmHg 76%
    02:00 +18°C° 0 mm 2 mps 747 mmHg 76%
    03:00 +17°C° 0 mm 2 mps 747 mmHg 77%
    04:00 +18°C° 0 mm 1 mps 747 mmHg 77%
    05:00 +19°C° 0 mm 2 mps 747 mmHg 73%
    06:00 +21°C° 0 mm 2 mps 747 mmHg 69%
    07:00 +24°C° 0 mm 2 mps 747 mmHg 64%
    08:00 +26°C° 0 mm 3 mps 747 mmHg 59%
    09:00 +27°C° 0 mm 3 mps 747 mmHg 54%
    10:00 +29°C° 0 mm 4 mps 747 mmHg 48%
    11:00 +30°C° 0 mm 4 mps 746 mmHg 46%
    12:00 +30°C° 0 mm 5 mps 746 mmHg 44%
    13:00 +32°C° 0 mm 5 mps 745 mmHg 42%
    14:00 +32°C° 0 mm 5 mps 745 mmHg 44%
    15:00 +32°C° 0 mm 5 mps 745 mmHg 46%
    16:00 +32°C° 0 mm 5 mps 744 mmHg 48%
    17:00 +29°C° 0 mm 5 mps 744 mmHg 54%
    18:00 +28°C° 0 mm 5 mps 744 mmHg 60%
    19:00 +27°C° 0 mm 4 mps 744 mmHg 66%
    20:00 +26°C° 0 mm 5 mps 744 mmHg 66%
    21:00 +25°C° 0 mm 5 mps 744 mmHg 67%
    22:00 +23°C° 0 mm 5 mps 744 mmHg 67%
    23:00 +23°C° 0 mm 5 mps 744 mmHg 68%

    1 July, Monday

    Time Temperature Precipitation Wind Pressure Humidity
    00:00 +22°C° 0 mm 4 mps 744 mmHg 70%
    01:00 +22°C° 0 mm 4 mps 743 mmHg 71%
    02:00 +21°C° 0 mm 4 mps 743 mmHg 74%
    03:00 +21°C° 0 mm 3 mps 743 mmHg 77%
    04:00 +20°C° 0 mm 3 mps 743 mmHg 80%
    05:00 +21°C° 0 mm 3 mps 744 mmHg 78%
    06:00 +24°C° 0 mm 3 mps 744 mmHg 77%
    07:00 +25°C° 0 mm 4 mps 744 mmHg 75%
    08:00 +26°C° 0 mm 4 mps 744 mmHg 73%
    09:00 +27°C° 0 mm 4 mps 744 mmHg 71%
    10:00 +27°C° 0 mm 4 mps 744 mmHg 69%
    11:00 +28°C° 0.1 mm 4 mps 744 mmHg 67%
    12:00 +28°C° 0.1 mm 4 mps 744 mmHg 64%
    13:00 +28°C° 0.1 mm 4 mps 743 mmHg 62%
    14:00 +28°C° 0.1 mm 4 mps 743 mmHg 61%
    15:00 +28°C° 0.1 mm 4 mps 743 mmHg 60%
    16:00 +29°C° 0.1 mm 5 mps 743 mmHg 58%
    17:00 +28°C° 0.1 mm 4 mps 743 mmHg 62%
    18:00 +27°C° 0.1 mm 4 mps 743 mmHg 65%
    19:00 +26°C° 0.1 mm 3 mps 743 mmHg 69%
    20:00 +24°C° 0 mm 3 mps 743 mmHg 68%
    21:00 +22°C° 0 mm 3 mps 743 mmHg 67%
    22:00 +20°C° 0 mm 2 mps 743 mmHg 66%
    23:00 +19°C° 0 mm 3 mps 743 mmHg 67%

    2 July, Tuesday

    Time Temperature Precipitation Wind Pressure Humidity
    00:00 +19°C° 0 mm 3 mps 744 mmHg 68%
    01:00 +18°C° 0 mm 3 mps 744 mmHg 68%
    02:00 +17°C° 0 mm 3 mps 744 mmHg 73%
    03:00 +17°C° 0 mm 4 mps 744 mmHg 78%
    04:00 +17°C° 0 mm 4 mps 745 mmHg 83%
    05:00 +17°C° 0 mm 4 mps 745 mmHg 81%
    06:00 +17°C° 0 mm 5 mps 745 mmHg 79%
    07:00 +17°C° 0 mm 5 mps 745 mmHg 77%
    08:00 +19°C° 0 mm 5 mps 745 mmHg 70%
    09:00 +20°C° 0 mm 6 mps 746 mmHg 63%
    10:00 +21°C° 0 mm 6 mps 746 mmHg 56%
    11:00 +21°C° 0 mm 6 mps 746 mmHg 54%
    12:00 +22°C° 0 mm 6 mps 746 mmHg 51%
    13:00 +22°C° 0 mm 6 mps 746 mmHg 49%
    14:00 +22°C° 0 mm 6 mps 746 mmHg 50%
    15:00 +22°C° 0 mm 6 mps 746 mmHg 52%
    16:00 +22°C° 0 mm 6 mps 746 mmHg 53%
    17:00 +21°C° 0 mm 5 mps 746 mmHg 58%
    18:00 +20°C° 0 mm 4 mps 746 mmHg 63%
    19:00 +19°C° 0 mm 3 mps 746 mmHg 68%
    20:00 +18°C° 0 mm 3 mps 746 mmHg 70%
    21:00 +16°C° 0 mm 3 mps 747 mmHg 71%
    22:00 +14°C° 0 mm 3 mps 747 mmHg 73%
    23:00 +13°C° 0 mm 3 mps 747 mmHg 76%
    Show more